Frankfort, MI

8:26 AM EST on December 06, 2019 (GMT -0500)
Frankfort

Weather History for KFKS - October, 2019

Change the Weather History Date:

Tuesday, October 15, 2019

  Actual Average (KMBL) Record (KMBL)
Temperature  
Mean Temperature 46 °F -  
Max Temperature 54 °F 59 °F 81 °F (1968)
Min Temperature 37 °F 44 °F 26 °F (2006)
Degree Days  
Heating Degree Days 20    
Moisture  
Dew Point 38 °F    
Average Humidity 74    
Maximum Humidity 85    
Minimum Humidity 58    
Precipitation  
Precipitation 0.00 in - - ()
Sea Level Pressure  
Sea Level Pressure 29.86 in    
Wind  
Wind Speed 4 mph (ESE)    
Max Wind Speed 15 mph    
Max Gust Speed 23 mph    
Visibility 9 miles    
Events Rain    
Averages and records for this station are not official NWS values.
T = Trace of Precipitation, MM = Missing Value Source: NWS Daily Summary

Daily Weather History Graph

Daily Weather History Graph

Search for Another Location

Airport or City:

Astronomy

Oct. 15, 2019 Rise Set
Actual Time 7:59 AM EDT 7:00 PM EDT
Civil Twilight 7:30 AM EDT 7:30 PM EDT
Nautical Twilight 6:56 AM EDT 8:03 PM EDT
Astronomical Twilight 6:22 AM EDT 8:37 PM EDT
Moon 8:17 PM EDT (10/15) 9:31 AM EDT (10/15)
Length of Visible Light 11h 59m
Length of Day
11h 00m
Full, 97% of the Moon is Illuminated
Oct 15
Full
Oct 21
Last Quarter
Oct 27
New
Nov 4
First Quarter
Nov 12
Full

Hourly Weather History & Observations

Time (EDT) Temp. Windchill Dew Point Humidity Pressure Visibility Wind Dir Wind Speed Gust Speed Precip Events Conditions
12:15 AM 45.0 °F 43.5 °F 34.7 °F 67% 30.04 in 10.0 mi SE 3.5 mph - N/A   Scattered Clouds
12:16 AM 45.1 °F - 34.7 °F 67% 30.04 in 10.0 mi Calm Calm - N/A   Scattered Clouds
12:35 AM 44.1 °F - 34.3 °F 69% 30.05 in 10.0 mi Calm Calm - N/A   Scattered Clouds
12:55 AM 43.2 °F 40.5 °F 34.9 °F 73% 30.05 in 10.0 mi SSE 4.6 mph - N/A   Scattered Clouds
1:00 AM 42.8 °F 41.1 °F 34.7 °F 73% 30.05 in 10.0 mi SE 3.5 mph - N/A   Scattered Clouds
1:18 AM 43.5 °F 41.9 °F 34.9 °F 72% 30.05 in 10.0 mi ESE 3.5 mph - N/A   Clear
1:36 AM 43.9 °F 41.3 °F 34.7 °F 70% 30.05 in 10.0 mi ESE 4.6 mph - N/A   Clear
1:55 AM 43.3 °F - 34.5 °F 71% 30.05 in 10.0 mi Calm Calm - N/A   Clear
2:15 AM 41.9 °F - 34.2 °F 74% 30.05 in 10.0 mi Calm Calm - N/A   Clear
2:16 AM 41.7 °F - 34.0 °F 74% 30.05 in 10.0 mi Calm Calm - N/A   Clear
2:39 AM 40.3 °F - 33.1 °F 75% 30.05 in 10.0 mi Calm Calm - N/A   Clear
3:15 AM 39.9 °F - 34.0 °F 79% 30.04 in 10.0 mi Calm Calm - N/A   Clear
3:35 AM 39.7 °F - 33.1 °F 77% 30.04 in 10.0 mi Calm Calm - N/A   Clear
3:55 AM 38.7 °F - 32.9 °F 80% 30.04 in 10.0 mi Calm Calm - N/A   Clear
4:18 AM 38.3 °F - 32.5 °F 80% 30.04 in 10.0 mi Calm Calm - N/A   Clear
4:36 AM 37.6 °F - 32.2 °F 81% 30.04 in 10.0 mi Calm Calm - N/A   Scattered Clouds
4:55 AM 38.7 °F - 33.6 °F 82% 30.03 in 10.0 mi Calm Calm - N/A   Mostly Cloudy
4:56 AM 38.7 °F - 33.4 °F 81% 30.03 in 10.0 mi Calm Calm - N/A   Mostly Cloudy
5:15 AM 38.8 °F - 33.6 °F 82% 30.02 in 10.0 mi Calm Calm - N/A   Overcast
5:39 AM 38.3 °F - 33.3 °F 82% 30.02 in 10.0 mi Calm Calm - N/A   Scattered Clouds
5:57 AM 37.8 °F - 32.7 °F 82% 30.01 in 10.0 mi Calm Calm - N/A   Scattered Clouds
6:15 AM 37.4 °F - 32.9 °F 84% 30.01 in 10.0 mi Calm Calm - N/A   Clear
6:16 AM 37.6 °F - 32.9 °F 83% 30.01 in 10.0 mi Calm Calm - N/A   Clear
6:35 AM 37.0 °F - 32.2 °F 83% 30.00 in 10.0 mi Calm Calm - N/A   Clear
6:55 AM 38.5 °F - 33.4 °F 82% 30.00 in 10.0 mi Calm Calm - N/A   Clear
7:18 AM 38.3 °F - 33.1 °F 81% 29.99 in 10.0 mi Calm Calm - N/A   Clear
7:35 AM 40.1 °F 38.0 °F 34.3 °F 80% 29.98 in 10.0 mi SSE 3.5 mph - N/A   Clear
7:55 AM 40.8 °F 37.8 °F 34.7 °F 79% 29.97 in 10.0 mi SE 4.6 mph - N/A   Clear
7:56 AM 41.0 °F 38.0 °F 34.9 °F 79% 29.97 in 10.0 mi SE 4.6 mph - N/A   Clear
8:15 AM 41.9 °F 39.0 °F 34.7 °F 76% 29.96 in 10.0 mi SE 4.6 mph - N/A   Clear
8:16 AM 41.9 °F 39.0 °F 34.7 °F 76% 29.96 in 10.0 mi SE 4.6 mph - N/A   Clear
8:39 AM 43.2 °F 39.7 °F 35.2 °F 74% 29.96 in 10.0 mi ESE 5.8 mph - N/A   Scattered Clouds
8:57 AM 43.3 °F 40.7 °F 34.9 °F 72% 29.95 in 10.0 mi ESE 4.6 mph - N/A   Scattered Clouds
9:15 AM 43.7 °F 39.7 °F 34.7 °F 71% 29.95 in 10.0 mi East 6.9 mph - N/A   Scattered Clouds
9:16 AM 43.7 °F 39.7 °F 34.7 °F 71% 29.95 in 10.0 mi ESE 6.9 mph - N/A   Scattered Clouds
9:35 AM 44.2 °F 40.3 °F 34.7 °F 69% 29.94 in 10.0 mi ESE 6.9 mph - N/A   Mostly Cloudy
9:36 AM 44.2 °F 40.3 °F 34.7 °F 69% 29.93 in 10.0 mi ESE 6.9 mph - N/A   Mostly Cloudy
9:55 AM 44.6 °F 40.7 °F 34.5 °F 68% 29.93 in 10.0 mi ESE 6.9 mph - N/A   Light Drizzle
10:00 AM 44.8 °F 41.0 °F 34.3 °F 67% 29.94 in 10.0 mi ESE 6.9 mph - N/A   Overcast
10:17 AM 44.8 °F 41.6 °F 35.2 °F 69% 29.93 in 10.0 mi SE 5.8 mph - N/A Rain Light Rain
10:36 AM 44.2 °F 42.7 °F 35.6 °F 72% 29.93 in 10.0 mi SE 3.5 mph - N/A Rain Light Rain
10:55 AM 44.2 °F 41.0 °F 35.8 °F 72% 29.93 in 10.0 mi ESE 5.8 mph - N/A   Drizzle
10:56 AM 44.2 °F 41.0 °F 35.8 °F 72% 29.93 in 10.0 mi ESE 5.8 mph - N/A   Drizzle
11:15 AM 45.0 °F 42.6 °F 36.0 °F 71% 29.92 in 10.0 mi SE 4.6 mph - N/A Rain Light Rain
11:39 AM 45.3 °F - 37.0 °F 73% 29.91 in 10.0 mi Calm Calm - N/A   Overcast
11:57 AM 46.8 °F - 37.2 °F 69% 29.89 in 10.0 mi East 5.8 mph - N/A   Overcast
12:15 PM 46.8 °F - 37.8 °F 71% 29.88 in 10.0 mi East 4.6 mph - N/A   Light Drizzle
12:16 PM 46.8 °F - 37.8 °F 71% 29.87 in 10.0 mi East 5.8 mph - N/A   Light Drizzle
12:35 PM 47.5 °F - 37.6 °F 69% 29.86 in 10.0 mi East 6.9 mph - N/A   Overcast
12:36 PM 47.5 °F - 37.6 °F 69% 29.85 in 10.0 mi East 6.9 mph - N/A   Overcast
12:55 PM 47.7 °F - 37.8 °F 69% 29.86 in 10.0 mi ESE 5.8 mph - N/A   Overcast
1:17 PM 47.7 °F - 38.1 °F 70% 29.83 in 10.0 mi ESE 9.2 mph - N/A   Overcast
1:36 PM 47.7 °F - 38.8 °F 71% 29.83 in 10.0 mi ESE 6.9 mph - N/A   Light Drizzle
1:55 PM 48.4 °F - 39.6 °F 72% 29.79 in 10.0 mi ESE 9.2 mph - N/A   Overcast
1:56 PM 48.4 °F - 39.6 °F 72% 29.79 in 10.0 mi ESE 9.2 mph - N/A   Overcast
2:15 PM 49.1 °F - 40.1 °F 71% 29.78 in 10.0 mi ESE 9.2 mph - N/A Rain Light Rain
2:16 PM 49.3 °F - 40.1 °F 71% 29.78 in 10.0 mi ESE 8.1 mph - N/A Rain Light Rain
2:38 PM 51.1 °F - 40.3 °F 67% 29.76 in 10.0 mi ESE 10.4 mph 19.6 mph N/A   Mostly Cloudy
2:57 PM 51.8 °F - 40.8 °F 66% 29.73 in 10.0 mi ESE 10.4 mph - N/A   Scattered Clouds
3:15 PM 53.4 °F - 40.8 °F 62% 29.71 in 10.0 mi SE 11.5 mph - N/A   Mostly Cloudy
3:35 PM 54.5 °F - 40.3 °F 59% 29.70 in 10.0 mi SE 15.0 mph 23.0 mph N/A   Mostly Cloudy
3:55 PM 54.5 °F - 39.9 °F 58% 29.69 in 10.0 mi SE 13.8 mph 20.7 mph N/A   Overcast
4:00 PM 54.5 °F - 40.5 °F 59% 29.69 in 10.0 mi SE 12.7 mph 19.6 mph N/A   Mostly Cloudy
4:18 PM 54.7 °F - 40.6 °F 59% 29.70 in 10.0 mi SE 10.4 mph 18.4 mph N/A   Overcast
4:36 PM 54.3 °F - 41.0 °F 61% 29.73 in 10.0 mi NNE 6.9 mph - N/A   Overcast
4:55 PM 54.9 °F - 41.0 °F 60% 29.71 in 10.0 mi East 5.8 mph - N/A   Overcast
5:15 PM 54.0 °F - 41.4 °F 62% 29.73 in 10.0 mi NNE 5.8 mph - N/A   Overcast
5:16 PM 54.0 °F - 41.5 °F 63% 29.73 in 10.0 mi NNE 5.8 mph - N/A   Overcast
5:39 PM 52.3 °F - 43.2 °F 71% 29.71 in 10.0 mi ENE 9.2 mph - N/A Rain Light Rain
5:57 PM 51.1 °F - 42.8 °F 73% 29.70 in 7.0 mi East 9.2 mph - N/A   Overcast
6:15 PM 50.0 °F - 43.2 °F 77% 29.68 in 3.0 mi East 11.5 mph 16.1 mph N/A Rain Heavy Rain
6:35 PM 49.3 °F - 43.7 °F 81% 29.67 in 5.0 mi East 6.9 mph 16.1 mph N/A Rain Light Rain
6:55 PM 49.5 °F - 43.7 °F 81% 29.68 in 10.0 mi Calm Calm - N/A   Overcast
6:59 PM 49.5 °F - 43.7 °F 81% 29.68 in 10.0 mi Calm Calm - N/A Rain Light Rain
7:18 PM 49.3 °F - 43.9 °F 82% 29.67 in 3.0 mi East 5.8 mph - N/A Rain Light Rain
7:36 PM 49.1 °F - 44.1 °F 83% 29.66 in 5.0 mi ESE 6.9 mph - N/A   Light Drizzle
7:55 PM 49.1 °F - 44.1 °F 83% 29.65 in 4.0 mi ESE 5.8 mph - N/A   Overcast
8:15 PM 49.5 °F - 44.6 °F 83% 29.65 in 4.0 mi East 9.2 mph - N/A   Overcast
8:39 PM 49.5 °F - 44.6 °F 83% 29.64 in 5.0 mi ESE 8.1 mph - N/A   Haze
8:57 PM 49.8 °F - 45.1 °F 84% 29.63 in 3.0 mi SE 3.5 mph - N/A   Haze
9:15 PM 50.0 °F - 45.5 °F 85% 29.63 in 7.0 mi Calm Calm - N/A   Overcast
9:35 PM 50.4 °F - 46.0 °F 85% 29.63 in 4.0 mi SSE 4.6 mph - N/A Rain Rain
9:55 PM 52.7 °F - 48.4 °F 85% 29.61 in 4.0 mi West 6.9 mph - N/A   Haze
10:18 PM 53.1 °F - 47.7 °F 82% 29.62 in 10.0 mi WSW 4.6 mph - N/A   Mostly Cloudy
10:36 PM 53.8 °F - 47.3 °F 79% 29.62 in 10.0 mi West 10.4 mph 16.1 mph N/A   Overcast
10:55 PM 53.2 °F - 46.0 °F 77% 29.62 in 10.0 mi WSW 9.2 mph - N/A   Overcast
11:15 PM 53.2 °F - 46.4 °F 78% 29.62 in 10.0 mi West 9.2 mph - N/A   Overcast
11:39 PM 52.7 °F - 45.5 °F 76% 29.61 in 10.0 mi West 12.7 mph 20.7 mph N/A   Overcast
11:57 PM 52.5 °F - 45.5 °F 77% 29.61 in 10.0 mi WSW 11.5 mph - N/A   Overcast